Tracking 34305 objects as of 7-Jun-2026
HD Live streaming from Space Station
objects crossing your sky now

ELEKTRON 3

Track ELEKTRON 3 now!
10-day predictions
ELEKTRON 3 is classified as:


NORAD ID: 829
Int'l Code: 1964-038A
Perigee: 414.1 km
Apogee: 6,068.1 km
Inclination: 60.8 °
Period: 156.3 minutes
Semi major axis: 9612 km
RCS: 2.8255 m2 (large)
Launch date: July 10, 1964
Source: Commonwealth of Independent States (former USSR) (CIS)
Launch site: TYURATAM MISSILE AND SPACE COMPLEX (TTMTR)
Your satellite tracking list
Your tracking list is empty




NASA's NSSDC Master Catalog

Two Line Element Set (TLE):
1   829U 64038A   26156.27525053  .00001041  00000-0  28908-3 0  9995
2   829  60.8071 217.3841 2941069 345.9002   7.4320  9.21247627 14352
Source of the keplerian elements: AFSPC